When you browse on this site, cookies collect data to enhance your experience and personalize the content and advertising you see.
Visit our Privacy Policy to learn more. By continuing to use the site, you agree to this use of cookies and data.
  • In United Kingdom
  • List of Countries
  • For 7 days
  • Water Temperature
  • Weather Map
  • Weather Widgets
  • user-avatar
    Login

    Hourly Weather Campo Grande

    Today, 22 January, Wednesday

    Time Temperature Precipitation Wind Pressure Humidity
    00:00 +25°C° 1 mm 2 mps 705 mmHg 87%
    01:00 +25°C° 1 mm 2 mps 705 mmHg 87%
    02:00 +25°C° 0 mm 2 mps 704 mmHg 87%
    03:00 +25°C° 1.6 mm 2 mps 704 mmHg 88%
    04:00 +25°C° 1.6 mm 2 mps 704 mmHg 89%
    05:00 +25°C° 1.6 mm 2 mps 704 mmHg 90%
    06:00 +25°C° 2.6 mm 2 mps 705 mmHg 88%
    07:00 +26°C° 2.6 mm 3 mps 705 mmHg 86%
    08:00 +26°C° 0 mm 1 mps 706 mmHg 90%
    09:00 +26°C° 1.3 mm 1 mps 706 mmHg 90%
    10:00 +26°C° 1.3 mm 2 mps 705 mmHg 90%
    11:00 +26°C° 1.3 mm 2 mps 705 mmHg 91%
    12:00 +27°C° 0.3 mm 3 mps 705 mmHg 85%
    13:00 +28°C° 0.3 mm 4 mps 704 mmHg 80%
    14:00 +30°C° 0.3 mm 5 mps 703 mmHg 74%
    15:00 +29°C° 0.2 mm 4 mps 703 mmHg 75%
    16:00 +29°C° 0.2 mm 4 mps 703 mmHg 76%
    17:00 +29°C° 0.2 mm 4 mps 703 mmHg 77%
    18:00 +28°C° 0.4 mm 3 mps 703 mmHg 81%
    19:00 +26°C° 0.4 mm 3 mps 703 mmHg 85%
    20:00 +25°C° 0.4 mm 2 mps 703 mmHg 90%
    21:00 +25°C° 0.1 mm 2 mps 704 mmHg 90%
    22:00 +25°C° 0.1 mm 2 mps 704 mmHg 91%
    23:00 +25°C° 0.1 mm 2 mps 704 mmHg 92%

    Tomorrow, 23 January, Thursday

    Time Temperature Precipitation Wind Pressure Humidity
    00:00 +24°C° 0 mm 2 mps 703 mmHg 92%
    01:00 +24°C° 0 mm 2 mps 703 mmHg 93%
    02:00 +24°C° 0 mm 2 mps 702 mmHg 94%
    03:00 +24°C° 0 mm 1 mps 703 mmHg 95%
    04:00 +23°C° 0 mm 1 mps 703 mmHg 96%
    05:00 +23°C° 0 mm 1 mps 703 mmHg 97%
    06:00 +24°C° 0 mm 1 mps 703 mmHg 95%
    07:00 +25°C° 0 mm 2 mps 703 mmHg 93%
    08:00 +25°C° 0 mm 2 mps 704 mmHg 91%
    09:00 +27°C° 0.3 mm 2 mps 704 mmHg 85%
    10:00 +28°C° 0.3 mm 2 mps 704 mmHg 80%
    11:00 +29°C° 0.3 mm 3 mps 704 mmHg 75%
    12:00 +29°C° 1.4 mm 3 mps 704 mmHg 77%
    13:00 +29°C° 1.4 mm 4 mps 703 mmHg 79%
    14:00 +29°C° 1.4 mm 5 mps 703 mmHg 81%
    15:00 +28°C° 1.3 mm 5 mps 703 mmHg 83%
    16:00 +27°C° 1.3 mm 6 mps 703 mmHg 85%
    17:00 +26°C° 1.3 mm 6 mps 703 mmHg 87%
    18:00 +24°C° 0 mm 6 mps 703 mmHg 87%
    19:00 +23°C° 0 mm 6 mps 704 mmHg 88%
    20:00 +22°C° 0 mm 5 mps 704 mmHg 89%
    21:00 +21°C° 0 mm 5 mps 704 mmHg 89%
    22:00 +21°C° 0 mm 5 mps 705 mmHg 90%
    23:00 +21°C° 0 mm 5 mps 705 mmHg 90%

    Day after tomorrow, 24 January, Friday

    Time Temperature Precipitation Wind Pressure Humidity
    00:00 +21°C° 0 mm 4 mps 705 mmHg 89%
    01:00 +21°C° 0 mm 4 mps 704 mmHg 87%
    02:00 +21°C° 0 mm 4 mps 704 mmHg 86%
    03:00 +21°C° 0 mm 4 mps 705 mmHg 86%
    04:00 +21°C° 0 mm 4 mps 705 mmHg 86%
    05:00 +21°C° 0 mm 4 mps 705 mmHg 86%
    06:00 +21°C° 0 mm 4 mps 706 mmHg 84%
    07:00 +22°C° 0 mm 4 mps 706 mmHg 82%
    08:00 +22°C° 0 mm 4 mps 707 mmHg 80%
    09:00 +25°C° 0 mm 4 mps 707 mmHg 77%
    10:00 +26°C° 0 mm 4 mps 707 mmHg 73%
    11:00 +27°C° 0 mm 4 mps 707 mmHg 70%
    12:00 +27°C° 0 mm 4 mps 707 mmHg 69%
    13:00 +28°C° 0 mm 4 mps 706 mmHg 68%
    14:00 +28°C° 0 mm 4 mps 706 mmHg 67%
    15:00 +28°C° 0 mm 4 mps 706 mmHg 68%
    16:00 +28°C° 0 mm 4 mps 705 mmHg 69%
    17:00 +27°C° 0 mm 4 mps 705 mmHg 70%
    18:00 +26°C° 0 mm 3 mps 706 mmHg 73%
    19:00 +25°C° 0 mm 3 mps 706 mmHg 77%
    20:00 +23°C° 0 mm 2 mps 706 mmHg 80%
    21:00 +23°C° 0 mm 2 mps 707 mmHg 81%
    22:00 +23°C° 0 mm 2 mps 707 mmHg 82%
    23:00 +21°C° 0 mm 2 mps 707 mmHg 83%

    25 January, Saturday

    Time Temperature Precipitation Wind Pressure Humidity
    00:00 +21°C° 0 mm 2 mps 707 mmHg 85%
    01:00 +22°C° 0 mm 1 mps 706 mmHg 86%
    02:00 +21°C° 0 mm 1 mps 706 mmHg 87%
    03:00 +21°C° 0 mm 1 mps 706 mmHg 87%
    04:00 +21°C° 0 mm 1 mps 707 mmHg 88%
    05:00 +21°C° 0 mm 1 mps 707 mmHg 89%
    06:00 +23°C° 0 mm 1 mps 708 mmHg 82%
    07:00 +24°C° 0 mm 1 mps 708 mmHg 76%
    08:00 +26°C° 0 mm 2 mps 709 mmHg 70%
    09:00 +28°C° 0 mm 1 mps 709 mmHg 65%
    10:00 +29°C° 0 mm 1 mps 709 mmHg 59%
    11:00 +31°C° 0 mm 1 mps 709 mmHg 53%
    12:00 +31°C° 0 mm 1 mps 709 mmHg 50%
    13:00 +31°C° 0 mm 1 mps 708 mmHg 48%
    14:00 +32°C° 0 mm 1 mps 708 mmHg 45%
    15:00 +31°C° 0 mm 2 mps 707 mmHg 48%
    16:00 +31°C° 0 mm 2 mps 707 mmHg 52%
    17:00 +30°C° 0 mm 2 mps 707 mmHg 55%
    18:00 +29°C° 0 mm 2 mps 707 mmHg 59%
    19:00 +27°C° 0 mm 2 mps 707 mmHg 63%
    20:00 +25°C° 0 mm 2 mps 708 mmHg 66%
    21:00 +25°C° 0 mm 2 mps 708 mmHg 68%
    22:00 +25°C° 0 mm 2 mps 708 mmHg 69%
    23:00 +24°C° 0 mm 2 mps 708 mmHg 70%

    26 January, Sunday

    Time Temperature Precipitation Wind Pressure Humidity
    00:00 +24°C° 0 mm 2 mps 708 mmHg 71%
    01:00 +24°C° 0 mm 2 mps 708 mmHg 73%
    02:00 +23°C° 0 mm 2 mps 707 mmHg 74%
    03:00 +23°C° 0 mm 2 mps 708 mmHg 74%
    04:00 +23°C° 0 mm 2 mps 708 mmHg 74%
    05:00 +23°C° 0 mm 2 mps 708 mmHg 74%
    06:00 +24°C° 0 mm 2 mps 709 mmHg 70%
    07:00 +26°C° 0 mm 2 mps 709 mmHg 67%
    08:00 +28°C° 0 mm 2 mps 710 mmHg 63%
    09:00 +30°C° 0 mm 2 mps 710 mmHg 57%
    10:00 +31°C° 0 mm 1 mps 710 mmHg 50%
    11:00 +33°C° 0 mm 1 mps 710 mmHg 43%
    12:00 +33°C° 0 mm 1 mps 709 mmHg 42%
    13:00 +33°C° 0 mm 1 mps 709 mmHg 40%
    14:00 +34°C° 0 mm 1 mps 708 mmHg 39%
    15:00 +34°C° 0 mm 2 mps 708 mmHg 43%
    16:00 +32°C° 0 mm 2 mps 707 mmHg 48%
    17:00 +31°C° 0 mm 2 mps 707 mmHg 52%
    18:00 +30°C° 0 mm 2 mps 707 mmHg 53%
    19:00 +28°C° 0 mm 2 mps 707 mmHg 54%
    20:00 +27°C° 0 mm 2 mps 708 mmHg 55%
    21:00 +26°C° 0 mm 2 mps 708 mmHg 59%
    22:00 +26°C° 0 mm 2 mps 708 mmHg 63%
    23:00 +25°C° 0 mm 2 mps 709 mmHg 67%

    27 January, Monday

    Time Temperature Precipitation Wind Pressure Humidity
    00:00 +25°C° 0 mm 2 mps 708 mmHg 70%
    01:00 +24°C° 0 mm 2 mps 708 mmHg 72%
    02:00 +24°C° 0 mm 2 mps 708 mmHg 75%
    03:00 +24°C° 0 mm 2 mps 708 mmHg 76%
    04:00 +23°C° 0 mm 1 mps 708 mmHg 77%
    05:00 +23°C° 0 mm 1 mps 708 mmHg 78%
    06:00 +25°C° 0 mm 1 mps 709 mmHg 73%
    07:00 +27°C° 0 mm 1 mps 710 mmHg 69%
    08:00 +29°C° 0 mm 1 mps 710 mmHg 65%
    09:00 +30°C° 0 mm 1 mps 710 mmHg 58%
    10:00 +32°C° 0 mm 1 mps 710 mmHg 52%
    11:00 +33°C° 0 mm 1 mps 710 mmHg 45%
    12:00 +33°C° 0 mm 1 mps 710 mmHg 44%
    13:00 +34°C° 0 mm 2 mps 709 mmHg 44%
    14:00 +34°C° 0 mm 2 mps 708 mmHg 43%
    15:00 +34°C° 0 mm 2 mps 708 mmHg 47%
    16:00 +32°C° 0 mm 2 mps 708 mmHg 50%
    17:00 +32°C° 0 mm 2 mps 708 mmHg 54%
    18:00 +30°C° 0 mm 2 mps 708 mmHg 58%
    19:00 +29°C° 0 mm 3 mps 708 mmHg 62%
    20:00 +27°C° 0 mm 3 mps 708 mmHg 66%
    21:00 +27°C° 0 mm 3 mps 709 mmHg 69%
    22:00 +26°C° 0 mm 3 mps 709 mmHg 72%
    23:00 +26°C° 0 mm 3 mps 709 mmHg 76%
    Show more